Flag for U.S.A. Weather past 2 weeks in Lexington, Virginia, U.S.A.

Now
42 °F

More clouds than sun.


Feels Like: 34 °F
Forecast: 37 / 61 °F
Wind: 15 mph from Northwest

Location: Hot Springs / Ingalls

Current Time: Apr 27, 2015 at 7:32:04 PM

Latest Report: Apr 27, 2015 at 6:55 PM


Visibility: 10 mi

Pressure: 29.84 "Hg

Humidity: 59%

Dew point: 28 °F

Location of LexingtonLocation

Historic Weather in Lexington — Graph

°F

Lexington temperature yesterday

Maximum temperature yesterday: 44 °F (at 6:55 PM)
Minimum temperature yesterday: 34 °F (at 12:35 AM)
Average temperature yesterday: 38 °F

Past Weeks' High & Low Weather Summary

 TemperatureHumidityPressure
High70 °F (Apr 18, 3:55 PM)100% (Apr 14, 1:55 AM)30.37 "Hg (Apr 14, 1:55 AM)
Low31 °F (Apr 24, 6:35 AM)14% (Apr 24, 3:35 PM)29.56 "Hg (Apr 26, 3:35 AM)
Average48 °F70%29.97 "Hg
* Reported Apr 12 6:15 PM — Apr 27 6:35 PM, Lexington, Weather by CustomWeather, © 2015

Note: Actual official high and low records may vary slightly from our data, if they occured in-between our weather recording intervals... More about our weather records

Advertising

Lexington weather history for previous 24 hours

 ConditionsComfort  
Time TempWeatherWind HumidityBarometerVisibility
6:35 PM
Mon, Apr 27
42 °FMostly cloudy.14 mph58%29.85 "Hg10 mi
6:15 PM42 °FMostly cloudy.14 mph56%29.85 "Hg10 mi
5:55 PM43 °FMostly cloudy.12 mph56%29.85 "Hg10 mi
5:15 PM43 °FOvercast.10 mph54%29.85 "Hg10 mi
4:55 PM43 °FMostly cloudy.10 mph53%29.84 "Hg10 mi
4:35 PM43 °FOvercast.13 mph53%29.82 "Hg10 mi
4:15 PM44 °FMostly cloudy.17 mph53%29.82 "Hg10 mi
3:55 PM45 °FMostly cloudy.7 mph50%29.81 "Hg10 mi
3:35 PM44 °FMostly cloudy.14 mph50%29.81 "Hg10 mi
3:15 PM46 °FMore clouds than sun.14 mph47%29.81 "Hg10 mi
2:55 PM46 °FCloudy.14 mph48%29.82 "Hg10 mi
2:35 PM45 °FBroken clouds.12 mph48%29.82 "Hg10 mi
2:15 PM45 °FBroken clouds.16 mph49%29.82 "Hg10 mi
1:55 PM47 °FBroken clouds.14 mph47%29.82 "Hg10 mi
1:35 PM45 °FPartly sunny.8 mph50%29.82 "Hg10 mi
1:15 PM46 °FPartly sunny.16 mph50%29.81 "Hg10 mi
12:50 PM46 °FPartly sunny.17 mph48%29.81 "Hg10 mi
12:35 PM47 °FOvercast.16 mph48%29.80 "Hg10 mi
12:15 PM45 °FMostly cloudy.9 mph52%29.80 "Hg10 mi
11:55 AM45 °FBroken clouds.12 mph53%29.81 "Hg10 mi
11:35 AM45 °FBroken clouds.12 mph54%29.82 "Hg10 mi
11:15 AM44 °FScattered clouds.13 mph58%29.81 "Hg10 mi
10:55 AM42 °FScattered clouds.14 mph66%29.81 "Hg10 mi
10:35 AM41 °FScattered clouds.16 mph69%29.80 "Hg10 mi
10:15 AM40 °FScattered clouds.12 mph73%29.79 "Hg10 mi
9:55 AM39 °FScattered clouds.10 mph74%29.79 "Hg10 mi
9:35 AM38 °FScattered clouds.13 mph76%29.79 "Hg10 mi
9:15 AM37 °FScattered clouds.10 mph77%29.79 "Hg10 mi
8:55 AM36 °FSunny.9 mph77%29.79 "Hg10 mi
8:35 AM35 °FSunny.12 mph79%29.78 "Hg10 mi
8:15 AM35 °FSunny.12 mph79%29.78 "Hg10 mi
7:55 AM34 °FSunny.8 mph80%29.77 "Hg10 mi
7:15 AM33 °FClear.6 mph83%29.76 "Hg10 mi
6:55 AM33 °FClear.7 mph84%29.75 "Hg10 mi
6:35 AM33 °FClear.5 mph82%29.74 "Hg10 mi
6:15 AM33 °FClear.6 mph82%29.74 "Hg10 mi
5:55 AM34 °FClear.7 mph81%29.73 "Hg10 mi
5:15 AM35 °FClear.6 mph79%29.73 "Hg10 mi
4:55 AM35 °FClear.7 mph78%29.73 "Hg10 mi
4:35 AM36 °FClear.6 mph76%29.74 "Hg10 mi
4:15 AM36 °FClear.8 mph75%29.75 "Hg10 mi
3:55 AM37 °FClear.7 mph75%29.74 "Hg10 mi
3:35 AM37 °FClear.7 mph75%29.74 "Hg10 mi
3:15 AM37 °FClear.7 mph75%29.74 "Hg10 mi
2:55 AM38 °FClear.10 mph72%29.73 "Hg10 mi
2:15 AM39 °FClear.5 mph79%29.75 "Hg10 mi
1:55 AM39 °FClear.5 mph75%29.75 "Hg10 mi
1:35 AM40 °FClear.5 mph76%29.76 "Hg10 mi
1:15 AM40 °FClear.5 mph91%29.76 "Hg10 mi
12:55 AM40 °FClear.3 mph88%29.75 "Hg10 mi
12:35 AM40 °FClear.5 mph86%29.75 "Hg10 mi
12:15 AM41 °FClear.5 mph93%29.75 "Hg10 mi
11:15 PM
Sun, Apr 26
41 °FClear.5 mph95%29.76 "Hg10 mi
10:55 PM41 °FClear.5 mph97%29.76 "Hg10 mi
10:35 PM42 °FClear.3 mph91%29.76 "Hg10 mi
10:10 PM42 °FClear.3 mph93%29.76 "Hg10 mi
9:55 PM42 °FClear.5 mph97%29.76 "Hg10 mi
9:35 PM42 °FClear.3 mph99%29.75 "Hg10 mi
9:15 PM42 °FClear.3 mph98%29.74 "Hg10 mi
8:55 PM42 °FSunny.6 mph100%29.73 "Hg10 mi
8:35 PM42 °FSunny.5 mph100%29.73 "Hg10 mi
8:15 PM41 °FScattered clouds.5 mph100%29.72 "Hg10 mi
7:55 PM43 °FPartly sunny.6 mph100%29.71 "Hg10 mi
7:35 PM44 °FPartly sunny.7 mph100%29.71 "Hg10 mi
7:15 PM44 °FLow clouds.6 mph100%29.70 "Hg10 mi
Weather by CustomWeather, © 2015

See weather overviewHow to use our weather pages